#timestamp,LO_Frequency,Hit,StdDev 
1588500015.0,286047004.2,P
1588500015.9,286047004.2,P
1588500035.8,286047002.9,N
1588500055.6,286047004.9,Y
1588500075.4,286047001.4,P
1588500095.3,286047002.6,N
1588500115.1,286047001.8,N
1588500135.8,286047002.3,Y
1588500155.7,286046998.9,P
1588500175.5,286046998.9,N
1588500195.4,286046999.4,N
1588500215.2,286046997.1,N
1588500235.0,286046996.6,N
1588500235.9,286046996.6,N
1588500255.8,286046999.1,N
1588500275.6,286046996.5,N
1588500295.4,286046997.4,N
1588500315.3,286046996.8,N
1588500335.1,286046997.0,N
1588500355.9,286046996.6,N
1588500375.7,286046996.9,N
1588500395.5,286046999.5,N
1588500415.4,286046998.8,N
1588500435.2,286046999.4,N
1588500455.0,286046996.5,N
1588500455.9,286046996.5,N
1588500475.8,286046997.1,N
1588500495.6,286046996.9,N
1588500515.5,286046998.8,N
1588500535.3,286046998.7,N
1588500555.1,286046998.8,N
1588500575.9,286046999.0,N
1588500595.7,286046998.7,N
1588500615.5,286046997.4,N
1588500635.4,286046996.9,N
1588500655.2,286046999.5,N
1588500675.1,286046997.2,N
1588500676.0,286046997.2,N
1588500695.8,286046997.3,N
1588500715.6,286046996.7,Y
1588500735.5,286047000.8,P
1588500755.3,286046998.5,N
1588500775.1,286047001.2,N
1588500795.9,286047000.1,N
1588500815.7,286047002.8,N
1588500835.6,286047000.3,N
1588500855.4,286047000.0,N
1588500875.2,286047000.8,N
1588500895.1,286046998.5,N
1588500896.0,286046998.5,N
1588500915.8,286046998.6,N
1588500935.7,286046998.6,N
1588500955.5,286046998.3,N
1588500975.3,286046999.6,N
1588500995.2,286046999.4,N
1588501015.0,286046999.1,N
1588501015.9,286046999.1,N
1588501035.7,286046999.4,N
1588501055.6,286046999.3,N
1588501075.4,286046999.0,N
1588501095.3,286046998.3,N
1588501115.1,286046998.9,N
1588501116.0,286046998.9,N
1588501135.8,286047000.8,N
1588501155.7,286047000.5,N
1588501175.5,286047002.8,N
1588501195.4,286047004.4,Y
1588501215.2,286047001.8,P
1588501235.0,286047001.5,N
1588501235.9,286047001.5,N
1588501255.8,286047001.9,N
1588501275.6,286047002.3,N
1588501295.4,286047000.5,N
1588501315.3,286046998.5,N
1588501335.1,286047000.4,N
1588501355.9,286047000.4,N
1588501375.7,286047001.6,N
1588501395.5,286047001.6,N
1588501415.4,286047002.6,N
1588501435.2,286047001.3,N
1588501455.0,286047004.0,Y
1588501455.9,286047004.0,P
1588501475.8,286047001.4,N
1588501495.6,286047002.1,N
1588501515.5,286047001.4,N
1588501535.3,286047004.3,Y
1588501555.1,286047000.0,P
1588501575.9,286047000.9,N
1588501595.7,286047000.2,N
1588501615.5,286047000.4,N
1588501635.4,286047000.1,N
1588501655.2,286047000.8,N
1588501675.1,286046998.8,N
1588501676.0,286046998.8,N
1588501695.8,286046998.6,N
1588501715.6,286047001.2,N
1588501735.5,286047001.1,N
1588501755.3,286047001.1,N
1588501775.1,286047000.1,N
1588501795.9,286047000.9,N
1588501815.7,286047000.0,N
1588501835.6,286047000.6,N
1588501855.4,286047000.9,N
1588501875.2,286047000.9,N
1588501895.1,286046999.9,N
1588501896.0,286046999.9,N
1588501915.8,286047001.0,N
1588501935.6,286047000.7,N
1588501955.5,286046998.7,N
1588501975.3,286046999.3,N
1588501995.2,286046999.4,N
1588502015.9,286046996.6,Y
1588502035.7,286046998.3,P
1588502055.6,286046998.2,N
1588502075.4,286046999.2,N
1588502095.3,286046996.5,Y
1588502115.1,286046998.7,P
1588502116.0,286046998.7,P
1588502135.8,286047001.2,P
1588502155.7,286046998.6,N
1588502175.5,286046998.6,N
1588502195.3,286047000.7,N
1588502215.2,286047000.9,N
1588502235.0,286047000.3,N
1588502235.9,286047000.3,N
1588502255.8,286047002.8,N
1588502275.6,286047000.5,N
1588502295.4,286047000.2,N
1588502315.3,286046999.7,N
1588502335.1,286047002.4,N
1588502355.8,286047000.9,N
1588502375.7,286046999.7,N
1588502395.5,286046999.9,N
1588502415.4,286047002.4,N
1588502435.2,286046998.4,N
1588502455.0,286047000.1,N
1588502455.9,286047000.1,N
1588502475.8,286047000.8,N
1588502495.6,286047001.0,N
1588502515.4,286047000.8,N
1588502535.3,286046999.9,N
1588502555.1,286047000.0,N
1588502575.9,286046999.7,N
1588502595.7,286047000.4,N
1588502615.5,286047000.0,N
1588502635.4,286046999.9,N
1588502655.2,286047002.4,N
1588502675.0,286047002.5,N
1588502675.9,286047002.5,N
1588502695.8,286047000.0,N
1588502715.6,286047002.1,N
1588502735.5,286046999.7,N
1588502755.3,286047001.0,N
1588502775.1,286046996.5,Y
1588502795.9,286046997.4,P
1588502815.7,286046995.5,N
1588502835.5,286046997.9,N
1588502855.4,286046998.0,N
1588502875.2,286046997.9,N
1588502895.1,286046995.1,Y
1588502896.0,286046995.1,P
1588502915.8,286046997.0,N
1588502935.6,286046999.6,N
1588502955.5,286046997.7,N
1588502975.3,286046997.4,N
1588502995.2,286046996.8,N
1588503015.9,286046996.6,N
1588503035.7,286046996.9,N
1588503055.6,286046999.4,N
1588503075.4,286046999.2,N
1588503095.2,286047000.7,N
1588503115.1,286046998.6,N
1588503116.0,286046998.6,N
1588503135.8,286046999.1,N
1588503155.7,286046999.4,N
1588503175.5,286046999.3,N
1588503195.3,286046998.1,N
1588503215.2,286047000.8,N
1588503235.0,286047000.5,N
1588503235.9,286047000.5,N
1588503255.7,286047000.7,N
1588503275.6,286047001.0,N
1588503295.4,286046998.1,N
1588503315.3,286047000.0,N
1588503335.1,286047001.0,N
1588503336.0,286047001.0,N
1588503355.8,286046998.4,N
1588503375.7,286046998.9,N
1588503395.5,286046998.9,N
1588503415.4,286046998.9,N
1588503435.2,286046999.5,N
1588503455.0,286046999.2,N
1588503455.9,286046999.2,N
1588503475.8,286046996.6,N
1588503495.6,286046999.0,N
1588503515.4,286046996.6,N
1588503535.3,286046998.8,N
1588503555.1,286046998.9,N
1588503575.9,286046999.3,N
1588503595.7,286046996.6,Y
